ACA442 KBOS-CYYZ

Flight info

Callsign ACA442
Flight time 1h 13m
Altitude 40000
Route HYLND7 HYLND DCT CAM Q822 GONZZ DCT WOZEE LINNG3
Aircraft B772/H-SDE2E3FGHIJ5LORVWXY/LB1D1

Departure

Time 2026-04-27 23:45
Airport Boston Logan International Airport (KBOS)

Arrival

Time 2026-04-28 00:59
Airport Toronto Pearson International Airport (CYYZ)
Time Latitude Longitude Altitude Speed Heading
2026-04-27 23:11 42.36041 -71.01688 30 ft 0 kts 289°
2026-04-27 23:12 42.36046 -71.01700 30 ft 0 kts 289°
2026-04-27 23:13 42.36046 -71.01699 30 ft 0 kts 289°
2026-04-27 23:35 42.36045 -71.01692 30 ft 2 kts 290°
2026-04-27 23:35 42.36037 -71.01668 29 ft 3 kts 294°
2026-04-27 23:36 42.36030 -71.01643 28 ft 3 kts 291°
2026-04-27 23:36 42.36021 -71.01618 29 ft 3 kts 298°
2026-04-27 23:36 42.36014 -71.01597 29 ft 3 kts 259°
2026-04-27 23:36 42.36011 -71.01594 29 ft 1 kts 199°
2026-04-27 23:37 42.36025 -71.01587 28 ft 3 kts 207°
2026-04-27 23:37 42.36042 -71.01575 27 ft 2 kts 201°
2026-04-27 23:37 42.36047 -71.01572 28 ft 4 kts 199°
2026-04-27 23:39 42.36020 -71.01585 29 ft 10 kts 199°
2026-04-27 23:39 42.35951 -71.01618 30 ft 10 kts 199°
2026-04-27 23:40 42.35886 -71.01587 30 ft 11 kts 144°
2026-04-27 23:40 42.35813 -71.01588 30 ft 13 kts 197°
2026-04-27 23:40 42.35720 -71.01632 30 ft 14 kts 200°
2026-04-27 23:40 42.35627 -71.01677 30 ft 14 kts 199°
2026-04-27 23:41 42.35533 -71.01719 30 ft 14 kts 191°
2026-04-27 23:41 42.35446 -71.01670 30 ft 14 kts 133°
2026-04-27 23:41 42.35388 -71.01561 30 ft 14 kts 126°
2026-04-27 23:41 42.35363 -71.01443 30 ft 14 kts 56°
2026-04-27 23:42 42.35448 -71.01384 30 ft 11 kts 19°
2026-04-27 23:42 42.35458 -71.01379 30 ft 0 kts 19°
2026-04-27 23:44 42.35523 -71.01348 30 ft 12 kts 19°
2026-04-27 23:44 42.35580 -71.01268 30 ft 13 kts 72°
2026-04-27 23:44 42.35586 -71.01239 30 ft 0 kts 76°
2026-04-27 23:45 42.35601 -71.01154 30 ft 45 kts 77°
2026-04-27 23:45 42.35776 -71.00177 37 ft 164 kts 76°
2026-04-27 23:45 42.36098 -70.98488 319 ft 196 kts 76°
2026-04-27 23:45 42.36441 -70.96599 646 ft 226 kts 78°
2026-04-27 23:46 42.36802 -70.94467 2069 ft 236 kts 77°
2026-04-27 23:46 42.37155 -70.92268 2716 ft 242 kts 77°
2026-04-27 23:46 42.37532 -70.90005 3015 ft 251 kts 76°
2026-04-27 23:46 42.37928 -70.87689 3010 ft 253 kts 75°
2026-04-27 23:47 42.38332 -70.85367 3264 ft 253 kts 75°
2026-04-27 23:47 42.38738 -70.83054 4450 ft 250 kts 73°
2026-04-27 23:47 42.39503 -70.80985 5507 ft 249 kts 46°
2026-04-27 23:47 42.40851 -70.79530 6592 ft 249 kts 34°
2026-04-27 23:48 42.42285 -70.78177 7667 ft 253 kts 35°
2026-04-27 23:48 42.43795 -70.76967 8603 ft 258 kts 19°
2026-04-27 23:48 42.45610 -70.76758 9619 ft 267 kts 355°
2026-04-27 23:48 42.47419 -70.77466 10586 ft 280 kts 341°
2026-04-27 23:49 42.49303 -70.78526 10934 ft 309 kts 340°
2026-04-27 23:49 42.51235 -70.79926 11489 ft 325 kts 323°
2026-04-27 23:49 42.52713 -70.82295 12375 ft 333 kts 307°
2026-04-27 23:49 42.54050 -70.84904 13300 ft 340 kts 308°
2026-04-27 23:50 42.55437 -70.87509 14420 ft 342 kts 309°
2026-04-27 23:50 42.56882 -70.90066 15455 ft 343 kts 310°
2026-04-27 23:50 42.58363 -70.92644 16466 ft 347 kts 311°
2026-04-27 23:50 42.59860 -70.95250 17442 ft 351 kts 311°
2026-04-27 23:51 42.61349 -70.97851 18398 ft 356 kts 311°
2026-04-27 23:51 42.62873 -71.00524 19265 ft 359 kts 311°
2026-04-27 23:51 42.64398 -71.03210 20154 ft 360 kts 311°
2026-04-27 23:51 42.65933 -71.05919 21029 ft 362 kts 311°
2026-04-27 23:52 42.67492 -71.08674 21897 ft 365 kts 311°
2026-04-27 23:52 42.69043 -71.11418 22690 ft 368 kts 312°
2026-04-27 23:52 42.70587 -71.14153 23506 ft 371 kts 312°
2026-04-27 23:52 42.72160 -71.16942 24248 ft 373 kts 312°
2026-04-27 23:53 42.73742 -71.19749 24951 ft 375 kts 312°
2026-04-27 23:53 42.75330 -71.22569 25638 ft 377 kts 312°
2026-04-27 23:53 42.76920 -71.25412 26313 ft 376 kts 310°
2026-04-27 23:53 42.78181 -71.28604 26806 ft 394 kts 294°
2026-04-27 23:54 42.78754 -71.32305 27380 ft 403 kts 285°
2026-04-27 23:54 42.79151 -71.36113 27958 ft 408 kts 285°
2026-04-27 23:54 42.79552 -71.39951 28618 ft 411 kts 285°
2026-04-27 23:54 42.79959 -71.43814 29316 ft 413 kts 285°
2026-04-27 23:55 42.80372 -71.47690 29997 ft 416 kts 285°
2026-04-27 23:55 42.80794 -71.51606 30597 ft 419 kts 285°
2026-04-27 23:55 42.81221 -71.55541 31081 ft 423 kts 285°
2026-04-27 23:55 42.81655 -71.59517 31546 ft 426 kts 286°
2026-04-27 23:56 42.82091 -71.63519 32056 ft 429 kts 286°
2026-04-27 23:56 42.82531 -71.67555 32522 ft 432 kts 286°
2026-04-27 23:56 42.82973 -71.71624 32963 ft 436 kts 286°
2026-04-27 23:56 42.83417 -71.75729 33403 ft 439 kts 286°
2026-04-27 23:57 42.83862 -71.79861 33837 ft 442 kts 285°
2026-04-27 23:57 42.84309 -71.84016 34234 ft 444 kts 285°
2026-04-27 23:57 42.84755 -71.88194 34622 ft 445 kts 285°
2026-04-27 23:57 42.85198 -71.92372 35071 ft 444 kts 285°
2026-04-27 23:58 42.85634 -71.96518 35696 ft 439 kts 285°
2026-04-27 23:58 42.86068 -72.00636 36126 ft 440 kts 285°
2026-04-27 23:58 42.86499 -72.04718 36483 ft 441 kts 284°
2026-04-27 23:58 42.86936 -72.08862 36860 ft 442 kts 284°
2026-04-27 23:59 42.87371 -72.13020 37280 ft 442 kts 284°
2026-04-27 23:59 42.87805 -72.17170 37703 ft 442 kts 284°
2026-04-27 23:59 42.88238 -72.21322 38108 ft 442 kts 283°
2026-04-27 23:59 42.88668 -72.25474 38501 ft 442 kts 283°
2026-04-28 00:00 42.89095 -72.29614 38893 ft 440 kts 283°
2026-04-28 00:00 42.89519 -72.33745 39253 ft 439 kts 283°
2026-04-28 00:00 42.89942 -72.37875 39500 ft 441 kts 283°
2026-04-28 00:00 42.90368 -72.42029 39744 ft 442 kts 283°
2026-04-28 00:01 42.90792 -72.46191 40013 ft 443 kts 283°
2026-04-28 00:01 42.91216 -72.50367 40179 ft 446 kts 283°
2026-04-28 00:01 42.92070 -72.58820 40267 ft 451 kts 282°
2026-04-28 00:02 42.92904 -72.67204 40257 ft 441 kts 283°
2026-04-28 00:02 42.93726 -72.75498 40262 ft 441 kts 283°
2026-04-28 00:03 42.94541 -72.83743 40253 ft 441 kts 283°
2026-04-28 00:03 42.95354 -72.92039 40264 ft 441 kts 283°
2026-04-28 00:04 42.96566 -73.04559 40245 ft 441 kts 284°
2026-04-28 00:05 42.97356 -73.12800 40222 ft 441 kts 284°
2026-04-28 00:05 42.98147 -73.21110 40228 ft 441 kts 284°
2026-04-28 00:06 42.98806 -73.28070 40232 ft 440 kts 284°
2026-04-28 00:06 42.99486 -73.36319 40222 ft 439 kts 280°
2026-04-28 00:07 42.99690 -73.44597 40228 ft 435 kts 279°
2026-04-28 00:07 42.99870 -73.52862 40230 ft 435 kts 279°
2026-04-28 00:08 43.00059 -73.61114 40235 ft 435 kts 279°
2026-04-28 00:08 43.00250 -73.69366 40221 ft 433 kts 280°
2026-04-28 00:09 43.00433 -73.77558 40219 ft 429 kts 280°
2026-04-28 00:09 43.00609 -73.85657 40228 ft 425 kts 280°
2026-04-28 00:10 43.00780 -73.93666 40236 ft 424 kts 280°
2026-04-28 00:10 43.00947 -74.01721 40216 ft 423 kts 280°
2026-04-28 00:11 43.01105 -74.09746 40224 ft 423 kts 280°
2026-04-28 00:11 43.01260 -74.17776 40233 ft 423 kts 280°
2026-04-28 00:12 43.01408 -74.25831 40245 ft 423 kts 280°
2026-04-28 00:12 43.01716 -74.33840 40240 ft 421 kts 282°
2026-04-28 00:13 43.02110 -74.41775 40233 ft 422 kts 282°
2026-04-28 00:13 43.02487 -74.49782 40236 ft 423 kts 282°
2026-04-28 00:14 43.02842 -74.57821 40234 ft 424 kts 281°
2026-04-28 00:14 43.03186 -74.65879 40232 ft 425 kts 281°
2026-04-28 00:15 43.03525 -74.73961 40232 ft 426 kts 281°
2026-04-28 00:15 43.03858 -74.82068 40219 ft 427 kts 281°
2026-04-28 00:16 43.04189 -74.90169 40228 ft 427 kts 281°
2026-04-28 00:16 43.04510 -74.98286 40233 ft 427 kts 281°
2026-04-28 00:17 43.04828 -75.06395 40207 ft 427 kts 281°
2026-04-28 00:17 43.05140 -75.14501 40205 ft 427 kts 281°
2026-04-28 00:18 43.05448 -75.22599 40213 ft 427 kts 281°
2026-04-28 00:18 43.05747 -75.30723 40212 ft 428 kts 280°
2026-04-28 00:19 43.05986 -75.38821 40200 ft 428 kts 280°
2026-04-28 00:19 43.06201 -75.46965 40197 ft 428 kts 279°
2026-04-28 00:20 43.06415 -75.55096 40203 ft 428 kts 279°
2026-04-28 00:20 43.06624 -75.63218 40206 ft 427 kts 279°
2026-04-28 00:21 43.06838 -75.71386 40195 ft 428 kts 279°
2026-04-28 00:21 43.07043 -75.79483 40180 ft 428 kts 279°
2026-04-28 00:22 43.07240 -75.87612 40192 ft 428 kts 278°
2026-04-28 00:22 43.07433 -75.95747 40181 ft 428 kts 278°
2026-04-28 00:23 43.07619 -76.03871 40177 ft 428 kts 278°
2026-04-28 00:23 43.07800 -76.12008 40182 ft 428 kts 278°
2026-04-28 00:24 43.07975 -76.20131 40174 ft 427 kts 278°
2026-04-28 00:24 43.08141 -76.28215 40170 ft 424 kts 278°
2026-04-28 00:25 43.08303 -76.36274 40175 ft 422 kts 278°
2026-04-28 00:25 43.08460 -76.44303 40185 ft 422 kts 277°
2026-04-28 00:26 43.08609 -76.52272 40174 ft 421 kts 277°
2026-04-28 00:26 43.08754 -76.60264 40184 ft 420 kts 277°
2026-04-28 00:27 43.08872 -76.68259 40190 ft 421 kts 275°
2026-04-28 00:27 43.08434 -76.76289 40186 ft 425 kts 271°
2026-04-28 00:28 43.07865 -76.84336 40188 ft 425 kts 271°
2026-04-28 00:28 43.07302 -76.92376 40174 ft 425 kts 270°
2026-04-28 00:29 43.06746 -77.00374 40182 ft 425 kts 270°
2026-04-28 00:29 43.06186 -77.08426 40184 ft 425 kts 270°
2026-04-28 00:30 43.05620 -77.16489 40177 ft 426 kts 270°
2026-04-28 00:30 43.05048 -77.24555 40160 ft 426 kts 270°
2026-04-28 00:31 43.04469 -77.32620 40168 ft 426 kts 269°
2026-04-28 00:31 43.03885 -77.40664 40160 ft 422 kts 269°
2026-04-28 00:31 43.03594 -77.44616 39922 ft 414 kts 270°
2026-04-28 00:32 43.03306 -77.48519 39297 ft 413 kts 270°
2026-04-28 00:32 43.03019 -77.52437 38584 ft 414 kts 270°
2026-04-28 00:32 43.02730 -77.56366 37625 ft 417 kts 270°
2026-04-28 00:32 43.02439 -77.60326 36602 ft 422 kts 269°
2026-04-28 00:33 43.02146 -77.64290 35670 ft 425 kts 269°
2026-04-28 00:33 43.01845 -77.68312 34703 ft 429 kts 269°
2026-04-28 00:33 43.01537 -77.72394 33651 ft 433 kts 268°
2026-04-28 00:33 43.01226 -77.76516 32332 ft 441 kts 268°
2026-04-28 00:34 43.00906 -77.80733 30876 ft 452 kts 268°
2026-04-28 00:34 43.00577 -77.85072 29403 ft 463 kts 268°
2026-04-28 00:34 43.00240 -77.89427 28462 ft 459 kts 267°
2026-04-28 00:34 42.99904 -77.93724 27758 ft 450 kts 266°
2026-04-28 00:35 42.99574 -77.97903 26887 ft 440 kts 266°
2026-04-28 00:35 42.99250 -78.02030 26130 ft 435 kts 266°
2026-04-28 00:35 42.98930 -78.06112 25433 ft 429 kts 265°
2026-04-28 00:35 42.98613 -78.10132 24753 ft 423 kts 265°
2026-04-28 00:36 42.98298 -78.14119 24051 ft 419 kts 265°
2026-04-28 00:36 42.97986 -78.18056 23288 ft 416 kts 264°
2026-04-28 00:36 42.97674 -78.21967 22479 ft 412 kts 264°
2026-04-28 00:36 42.97363 -78.25849 21667 ft 410 kts 264°
2026-04-28 00:37 42.97051 -78.29723 20689 ft 412 kts 264°
2026-04-28 00:37 42.96735 -78.33633 19593 ft 417 kts 264°
2026-04-28 00:37 42.96418 -78.37547 18535 ft 422 kts 263°
2026-04-28 00:37 42.96095 -78.41508 17666 ft 414 kts 263°
2026-04-28 00:38 42.95771 -78.45454 17363 ft 418 kts 263°
2026-04-28 00:38 42.95446 -78.49395 17153 ft 416 kts 263°
2026-04-28 00:38 42.95123 -78.53312 16956 ft 415 kts 263°
2026-04-28 00:38 42.94799 -78.57218 16761 ft 414 kts 263°
2026-04-28 00:39 42.94474 -78.61121 16563 ft 412 kts 263°
2026-04-28 00:39 42.94149 -78.65009 16377 ft 413 kts 263°
2026-04-28 00:39 42.93828 -78.68879 16282 ft 406 kts 264°
2026-04-28 00:39 42.93939 -78.72732 16207 ft 411 kts 282°
2026-04-28 00:40 42.94951 -78.76380 16206 ft 413 kts 298°
2026-04-28 00:40 42.96638 -78.79544 16202 ft 413 kts 309°
2026-04-28 00:40 42.98513 -78.82551 16202 ft 416 kts 309°
2026-04-28 00:40 43.00374 -78.85555 16360 ft 414 kts 308°
2026-04-28 00:41 43.02229 -78.88579 16842 ft 414 kts 308°
2026-04-28 00:41 43.03970 -78.91438 16893 ft 373 kts 308°
2026-04-28 00:41 43.05540 -78.94032 16501 ft 338 kts 308°
2026-04-28 00:41 43.06997 -78.96457 15733 ft 330 kts 307°
2026-04-28 00:42 43.08450 -78.98886 15400 ft 326 kts 307°
2026-04-28 00:42 43.09876 -79.01267 15089 ft 321 kts 307°
2026-04-28 00:42 43.11290 -79.03627 14689 ft 320 kts 307°
2026-04-28 00:42 43.12701 -79.05985 14252 ft 320 kts 307°
2026-04-28 00:43 43.14105 -79.08332 13952 ft 316 kts 307°
2026-04-28 00:43 43.15492 -79.10650 13717 ft 313 kts 307°
2026-04-28 00:43 43.16866 -79.12947 13509 ft 312 kts 307°
2026-04-28 00:43 43.18253 -79.15270 13200 ft 313 kts 307°
2026-04-28 00:44 43.19644 -79.17602 12737 ft 321 kts 307°
2026-04-28 00:44 43.21053 -79.19966 12379 ft 318 kts 307°
2026-04-28 00:44 43.22437 -79.22286 12118 ft 310 kts 307°
2026-04-28 00:44 43.23793 -79.24563 11874 ft 307 kts 307°
2026-04-28 00:45 43.25139 -79.26826 11689 ft 305 kts 307°
2026-04-28 00:45 43.26480 -79.29081 11481 ft 305 kts 307°
2026-04-28 00:45 43.27811 -79.31323 11264 ft 309 kts 307°
2026-04-28 00:45 43.29173 -79.33619 11061 ft 309 kts 307°
2026-04-28 00:46 43.30750 -79.35608 10813 ft 313 kts 329°
2026-04-28 00:46 43.32793 -79.36640 10594 ft 313 kts 343°
2026-04-28 00:46 43.34896 -79.37469 10426 ft 314 kts 341°
2026-04-28 00:46 43.36922 -79.38317 10143 ft 293 kts 341°
2026-04-28 00:47 43.38844 -79.39135 9943 ft 291 kts 341°
2026-04-28 00:47 43.40799 -79.39972 9725 ft 295 kts 341°
2026-04-28 00:47 43.42759 -79.40811 9491 ft 296 kts 341°
2026-04-28 00:47 43.44664 -79.41625 9265 ft 285 kts 341°
2026-04-28 00:48 43.46563 -79.42438 9067 ft 287 kts 341°
2026-04-28 00:48 43.48484 -79.43262 8880 ft 291 kts 341°
2026-04-28 00:48 43.50410 -79.44089 8707 ft 287 kts 341°
2026-04-28 00:48 43.52274 -79.44967 8444 ft 276 kts 331°
2026-04-28 00:49 43.53725 -79.46518 8269 ft 257 kts 311°
2026-04-28 00:49 43.54984 -79.48241 8116 ft 251 kts 313°
2026-04-28 00:49 43.56238 -79.49891 8056 ft 248 kts 313°
2026-04-28 00:49 43.57486 -79.51553 7815 ft 249 kts 307°
2026-04-28 00:50 43.58105 -79.52853 7672 ft 242 kts 285°
2026-04-28 00:50 43.58275 -79.55080 7538 ft 231 kts 254°
2026-04-28 00:50 43.57716 -79.57105 7399 ft 224 kts 234°
2026-04-28 00:50 43.56753 -79.58749 7271 ft 220 kts 224°
2026-04-28 00:51 43.55688 -79.60281 7130 ft 221 kts 223°
2026-04-28 00:51 43.54263 -79.62299 6963 ft 222 kts 223°
2026-04-28 00:51 43.53535 -79.63335 6857 ft 223 kts 223°
2026-04-28 00:51 43.52459 -79.64875 6720 ft 223 kts 223°
2026-04-28 00:52 43.51392 -79.66412 6539 ft 222 kts 223°
2026-04-28 00:52 43.50313 -79.67971 6179 ft 226 kts 223°
2026-04-28 00:52 43.49259 -79.69500 6160 ft 214 kts 222°
2026-04-28 00:52 43.48245 -79.70969 6125 ft 211 kts 223°
2026-04-28 00:53 43.47225 -79.72443 6040 ft 216 kts 222°
2026-04-28 00:53 43.46178 -79.73952 5924 ft 219 kts 222°
2026-04-28 00:53 43.45254 -79.75612 5749 ft 223 kts 242°
2026-04-28 00:53 43.45054 -79.77759 5598 ft 237 kts 274°
2026-04-28 00:54 43.45718 -79.79901 5195 ft 256 kts 304°
2026-04-28 00:54 43.47016 -79.81625 4685 ft 268 kts 318°
2026-04-28 00:54 43.48564 -79.83085 4169 ft 275 kts 337°
2026-04-28 00:54 43.50432 -79.83574 3644 ft 272 kts
2026-04-28 00:55 43.52176 -79.82925 3206 ft 247 kts 39°
2026-04-28 00:55 43.53278 -79.81378 3014 ft 210 kts 66°
2026-04-28 00:55 43.54055 -79.79764 3018 ft 200 kts 61°
2026-04-28 00:55 43.54897 -79.78227 3022 ft 205 kts 59°
2026-04-28 00:56 43.55826 -79.76715 3023 ft 207 kts 55°
2026-04-28 00:56 43.56807 -79.75275 3017 ft 205 kts 54°
2026-04-28 00:56 43.57788 -79.73853 2911 ft 207 kts 54°
2026-04-28 00:56 43.58786 -79.72408 2617 ft 208 kts 53°
2026-04-28 00:57 43.59790 -79.70956 2364 ft 209 kts 53°
2026-04-28 00:57 43.60781 -79.69520 2090 ft 201 kts 54°
2026-04-28 00:57 43.61697 -79.68193 1802 ft 186 kts 54°
2026-04-28 00:57 43.62546 -79.66966 1556 ft 165 kts 54°
2026-04-28 00:58 43.63285 -79.65889 1357 ft 145 kts 52°
2026-04-28 00:58 43.63972 -79.64886 1158 ft 143 kts 51°
2026-04-28 00:58 43.64642 -79.63919 956 ft 139 kts 48°
2026-04-28 00:58 43.65313 -79.62947 777 ft 140 kts 49°
2026-04-28 00:59 43.65978 -79.61984 592 ft 136 kts 50°
2026-04-28 00:59 43.66573 -79.61106 573 ft 102 kts 46°
2026-04-28 00:59 43.66905 -79.60633 571 ft 36 kts 40°
2026-04-28 00:59 43.67065 -79.60543 566 ft 5 kts 21°
2026-04-28 01:00 43.67068 -79.60541 572 ft 0 kts 21°
2026-04-28 01:01 43.67078 -79.60536 562 ft 7 kts 20°
2026-04-28 01:02 43.67089 -79.60530 572 ft 1 kts 20°
2026-04-28 01:02 43.67099 -79.60525 570 ft 2 kts 21°
2026-04-28 01:02 43.67119 -79.60515 566 ft 4 kts 20°
2026-04-28 01:02 43.67195 -79.60515 566 ft 10 kts 340°
2026-04-28 01:03 43.67256 -79.60579 567 ft 15 kts 319°
2026-04-28 01:03 43.67351 -79.60701 565 ft 19 kts 317°
2026-04-28 01:03 43.67439 -79.60816 566 ft 13 kts 316°
2026-04-28 01:03 43.67457 -79.60840 567 ft 2 kts 316°
2026-04-28 01:04 43.67484 -79.60875 570 ft 15 kts 316°
2026-04-28 01:04 43.67553 -79.60978 572 ft 13 kts 328°
2026-04-28 01:04 43.67611 -79.61024 568 ft 5 kts 330°
2026-04-28 01:04 43.67619 -79.61030 574 ft 0 kts 330°
2026-04-28 01:05 43.67620 -79.61031 573 ft 0 kts 330°